Ohio University (UNI)

 

Airport Diagram
No Airport Diagram Available
Current Weather/Forecast (VFR Conditions)
METAR KUNI 191735Z AUTO 26009G16KT 10SM BKN060 BKN080 17/03 A2989 RMK AO2 T01650030
TAF

Airport Information

All Charts
General
Chart Name View
TAKEOFF MINIMUMS
ALTERNATE MINIMUMS
TAKEOFF MINIMUMS
ALTERNATE MINIMUMS

Approaches
Chart Name Download
ILS OR LOC RWY 25
RNAV (GPS) RWY 07
RNAV (GPS) RWY 25
NDB RWY 25
ILS OR LOC RWY 25
RNAV (GPS) RWY 07
RNAV (GPS) RWY 25
NDB RWY 25


Airport Statistics
Departures Arrivals Local
All Collected Stats since June 2016: 20 23 0
2021 Stats: 5 6 0
April Stats: 0 0 0

Inbound Traffic (Arrivals) - 0

No inbound traffic.


Outbound Traffic (Departures) - 0

No outbound traffic.


Local Traffic (Pattern) - 0

No local traffic.